Showing default

NUSAT-42 (M WONENBURGER), 56966

Orbit data source: Space-Track

NUSAT-42 (M WONENBURGER), 56966 is a payload satellite in SSO that was launched on Mon, 12 Jun 2023 UTC via an FALCON 9 launch vehicle from the Air Force Western Test Range (AFWTR). Payload-class satellites include a variety of spacecraft equipped with specific instruments for various scientific and technological missions. These include communications satellites like Starlink; space stations such as the ISS; scientific satellites like the Hubble; Earth observation satellites from companies like Planet Labs, Umbra, and HawkEye 360; GPS; miniature CubeSats for education and research; and military/defense satellites.

Loading next visibility...
Identifier
56966, 2023-084AL
Orbit
SSO
Last TLE update
8 hours ago
Origin
Manufacturer
URUGUS S.A.
Mission
Operational Commercial Imaging
Bus & Motor
NEWSAT V, Unknown motor
Mass
41.5 kg wet, 38.5 kg dry
Launch date (UTC)
2023-06-12 (2 years ago)
Launch vehicle
FALCON 9
Launch site
Air Force Western Test Range (AFWTR)
Object type
Payload
Rocket body
Debris
Shape & HBR
Box, 0.813 m
Radar Cross Section
0.542 m², Medium (>0.1 m² and < 1m²)

Expand to show TLE details & history

TLE from 8 hours ago
0 NUSAT-42 (M WONENBURGER)
1 56966U 23084AL  25139.19418452  .00013608  00000-0  46774-3 0  9992
2 56966  97.5255 268.3240 0008358 210.0026 150.0736 15.30190203107595
Epoch: 2025-05-19T04:39Z
TLE epoch observation values (Epoch: 2025-05-19T04:39:37.542Z)
Latitude
-0.00007°
Longitude
-38.69272°
Altitude
483.312 km
Speed
7.621 km/s
True Right ascension
17h 53m 17s
True Declination
0° 00' 00"
Sunlit
Object was in full shadow at epoch
Visualization orbit readout
Latitude
-38.10381°
Longitude
-32.45509°
Altitude
492.036 km
Speed
7.616 km/s
Apparent Right ascension
14h 12m 53s
Apparent Declination
-65° 23' 23"
Sunlit
Object is in full shadow
Visualization observer readout
Local Sidereal Time
21:09:38
Azimuth
212.579° SW
Elevation
-41.427°
Doppler factor
1
Orbital elements
Apogee altitude
477.927 km
Perigee altitude
466.476 km
Semi-major axis
6,850.339 km
Eccentricity
0.00084
Inclination
97.5255°
RAAN
268.324°
Arg. of periapsis
210.0026°
True anomaly
Unknown
Mean anomaly
150.0736°
Eccentric anomaly
Unknown
Mean motion
3.82803 °/min
Orbital period
94.04 mins
BSTAR
0.00046774
Loading maneuver chart data...
Loading SW <> Apogee altitude chart data...
Loading historical data...
Loading historical data...
Loading historical data...
Loading historical data...
Loading historical data...
Loading historical data...
Loading historical data...

NUSAT-42 (M WONENBURGER) Visibility forecast

Observer location: undefined°, undefined°

Span
Click to sort rows by Start time (UTC) header in descending order
Start Az.
Max El. time (UTC)
Max El. Az.
Max El.
End time (UTC)
End Az.
5 mins2025-05-19 20:55:25.043Z37.699° NE2025-05-19 20:58:25.043Z108.428° ESE26.427°2025-05-19 21:00:25.043Z153.172° SSE
4 mins2025-05-20 09:03:25.043Z210.324° SW2025-05-20 09:04:25.043Z239.303° WSW30.956°2025-05-20 09:07:25.043Z325.872° NNW
|